{"data":{"norad_id":60293,"epoch":"2026-05-25T00:52:57.709920Z","epoch_age_seconds":71131,"freshness":"FRESH","line1":"1 60293U 24132R   26145.03677905  .00000643  00000+0  33845-4 0  9996","line2":"2 60293  53.1607  57.5072 0001248  82.0990 278.0152 15.30193239103255","mean_motion":15.30193239,"eccentricity":0.0001248,"inclination_deg":53.1607,"raan_deg":57.5072,"arg_perigee_deg":82.099,"mean_anomaly_deg":278.0152,"bstar":3.3845e-5,"rev_number":10325,"period_min":94.105761501146,"perigee_km":474.37995576335,"apogee_km":476.0905574786,"semimajor_km":6853.372256621,"source":"CELESTRAK","updated_at":"2026-05-25T13:38:19.224248Z"}}